Change the Weather History Date:

Tuesday, February 4, 2014

  Actual Average Record
Temperature  
Mean Temperature 26 °F -  
Max Temperature 33 °F 45 °F 67 °F (1953)
Min Temperature 18 °F 18 °F -5 °F (1982)
Degree Days  
Heating Degree Days 40    
Moisture  
Dew Point 20 °F    
Average Humidity 88    
Maximum Humidity 100    
Minimum Humidity 43    
Precipitation  
Precipitation 0.04 in - - ()
Sea Level Pressure  
Sea Level Pressure 29.75 in    
Wind  
Wind Speed 8 mph (SSE)    
Max Wind Speed 24 mph    
Max Gust Speed 31 mph    
Visibility 6 miles    
Events Fog , Snow    
Averages and records for this station are not official NWS values.
T = Trace of Precipitation, MM = Missing Value Source: NWS Daily Summary

Daily Weather History Graph

Daily Weather History Graph

Search for Another Location

Airport or City:

Trip Planner

Search our weather history database for the weather conditions in past years. The results will help you decide how hot, cold, wet, or windy it might be!

Date:

Astronomy

Feb. 04, 2014 Rise Set
Actual Time 6:58 AM MST 5:31 PM MST
Civil Twilight 6:31 AM MST 5:58 PM MST
Nautical Twilight 6:01 AM MST 6:28 PM MST
Astronomical Twilight 5:31 AM MST 6:58 PM MST
Moon 9:50 AM MST (2/4) 11:14 PM MST (2/4)
Length of Visible Light 11h 26m
Length of Day
10h 33m
Waxing Crescent, 29% of the Moon is Illuminated
Feb 4
Waxing Crescent
Feb 6
First Quarter
Feb 14
Full
Feb 22
Last Quarter
Mar 1
New

Hourly Weather History & Observations

Time (MST) Temp. Windchill Dew Point Humidity Pressure Visibility Wind Dir Wind Speed Gust Speed Precip Events Conditions
12:00 AM 21.9 °F 11.0 °F 19.9 °F 92% 29.71 in 2.5 mi South 10.4 mph - N/A   Overcast
12:02 AM 21.9 °F 11.7 °F 21.0 °F 96% 29.71 in 1.0 mi South 9.2 mph - N/A   Overcast
12:05 AM 21.9 °F 12.5 °F 21.0 °F 96% 29.71 in 0.5 mi South 8.1 mph - N/A Fog Light Freezing Fog
12:14 AM 23.0 °F 13.1 °F 21.9 °F 96% 29.70 in 0.2 mi South 9.2 mph - 0.00 in Fog , Snow Snow
12:25 AM 24.1 °F 12.5 °F 21.9 °F 91% 29.71 in 0.8 mi SSW 12.7 mph - 0.00 in Snow Light Snow
12:29 AM 24.1 °F 13.1 °F 23.0 °F 96% 29.71 in 1.0 mi SSW 11.5 mph - 0.00 in Snow Light Snow
12:40 AM 25.0 °F 16.3 °F 24.1 °F 96% 29.70 in 0.5 mi SW 8.1 mph - 0.02 in Fog , Snow Snow
12:53 AM 25.0 °F 19.3 °F 24.1 °F 96% 29.64 in 0.5 mi SSW 4.6 mph - 0.04 in Fog , Snow Light Snow
12:55 AM 25.0 °F 18.1 °F 24.1 °F 96% 29.69 in 1.0 mi SSW 5.8 mph - 0.00 in Snow Light Snow
12:59 AM 25.0 °F 19.3 °F 24.1 °F 96% 29.69 in 3.0 mi South 4.6 mph - 0.00 in Snow Light Snow
1:18 AM 24.1 °F 19.7 °F 21.9 °F 91% 29.68 in 6.0 mi NNW 3.5 mph - 0.00 in Snow Light Snow
1:25 AM 24.1 °F - 21.9 °F 91% 29.68 in 8.0 mi Calm Calm - 0.00 in   Mostly Cloudy
1:34 AM 24.1 °F - 21.9 °F 91% 29.67 in 1.8 mi Calm Calm - 0.00 in   Scattered Clouds
1:45 AM 24.1 °F - 21.9 °F 91% 29.67 in 3.0 mi Calm Calm - 0.00 in   Partly Cloudy
1:53 AM 18.0 °F - 17.1 °F 96% 29.64 in 4.0 mi North - - 0.00 in   Clear
2:09 AM 19.9 °F 14.9 °F 19.9 °F 100% 29.67 in 1.5 mi South 3.5 mph - N/A   Partly Cloudy
2:11 AM 19.0 °F 13.9 °F 18.0 °F 96% 29.67 in 0.8 mi South 3.5 mph - N/A   Partly Cloudy
2:19 AM 19.9 °F 13.4 °F 18.0 °F 92% 29.67 in 0.5 mi SSE 4.6 mph - N/A Fog Light Freezing Fog
2:30 AM 23.0 °F 18.4 °F 21.9 °F 96% 29.67 in 2.0 mi South 3.5 mph - N/A   Mostly Cloudy
2:37 AM 24.1 °F - 23.0 °F 96% 29.67 in 10.0 mi Calm Calm - N/A   Overcast
2:53 AM 25.0 °F 19.3 °F 23.0 °F 92% 29.62 in 10.0 mi SSE 4.6 mph - N/A   Overcast
3:03 AM 24.1 °F - 23.0 °F 96% 29.67 in 10.0 mi Calm Calm - N/A   Overcast
3:11 AM 24.1 °F - 23.0 °F 96% 29.67 in 10.0 mi Calm Calm - N/A   Overcast
3:20 AM 25.0 °F - 21.9 °F 88% 29.67 in 10.0 mi Calm Calm - N/A   Overcast
3:32 AM 24.1 °F - 23.0 °F 96% 29.67 in 10.0 mi Calm Calm - N/A   Overcast
3:44 AM 26.1 °F 20.5 °F 24.1 °F 92% 29.68 in 10.0 mi NNW 4.6 mph - N/A   Overcast
3:53 AM 25.0 °F 19.3 °F 24.1 °F 96% 29.64 in 8.0 mi NW 4.6 mph - N/A   Overcast
4:30 AM 25.0 °F 16.3 °F 24.1 °F 96% 29.69 in 1.8 mi NNE 8.1 mph - N/A   Overcast
4:40 AM 24.1 °F 11.5 °F 21.9 °F 91% 29.69 in 3.0 mi ENE 15.0 mph - N/A   Overcast
4:53 AM 24.1 °F 12.5 °F 21.9 °F 91% 29.67 in 10.0 mi ENE 12.7 mph - N/A   Overcast
5:00 AM 23.0 °F 12.4 °F 21.9 °F 96% 29.70 in 10.0 mi ENE 10.4 mph - N/A   Overcast
5:07 AM 23.0 °F 12.4 °F 21.0 °F 92% 29.71 in 10.0 mi ENE 10.4 mph - N/A   Overcast
5:53 AM 23.0 °F 10.6 °F 21.0 °F 92% 29.70 in 8.0 mi NE 13.8 mph - 0.00 in Snow Light Snow
6:05 AM 23.0 °F 13.9 °F 21.0 °F 92% 29.72 in 9.0 mi NE 8.1 mph - 0.00 in   Overcast
6:53 AM 21.0 °F 13.4 °F 19.0 °F 92% 29.73 in 9.0 mi East 5.8 mph - 0.00 in   Overcast
7:15 AM 19.0 °F 11.1 °F 17.1 °F 92% 29.73 in 5.0 mi East 5.8 mph - N/A   Mostly Cloudy
7:40 AM 19.0 °F 11.1 °F 18.0 °F 96% 29.73 in 6.0 mi East 5.8 mph - N/A   Mostly Cloudy
7:53 AM 19.9 °F 13.4 °F 18.0 °F 92% 29.75 in 6.0 mi East 4.6 mph - N/A   Mostly Cloudy
8:17 AM 21.0 °F 10.6 °F 19.0 °F 92% 29.73 in 6.0 mi East 9.2 mph - N/A   Overcast
8:22 AM 19.9 °F 10.1 °F 19.0 °F 96% 29.74 in 1.8 mi East 8.1 mph - N/A   Overcast
8:29 AM 19.9 °F 12.1 °F 19.0 °F 96% 29.74 in 0.2 mi East 5.8 mph - N/A Fog Light Freezing Fog
8:53 AM 21.0 °F 11.4 °F 19.0 °F 92% 29.76 in 0.2 mi East 8.1 mph - N/A Fog Light Freezing Fog
9:00 AM 21.9 °F 13.4 °F 19.9 °F 92% 29.75 in 0.8 mi East 6.9 mph - N/A   Overcast
9:08 AM 21.9 °F 14.5 °F 19.9 °F 92% 29.75 in 2.0 mi ENE 5.8 mph - N/A   Overcast
9:17 AM 23.0 °F - 21.9 °F 96% 29.75 in 9.0 mi Calm Calm - N/A   Overcast
9:53 AM 23.0 °F 14.7 °F 21.0 °F 92% 29.77 in 10.0 mi East 6.9 mph - N/A   Overcast
10:24 AM 24.1 °F 14.4 °F 21.0 °F 88% 29.76 in 10.0 mi East 9.2 mph - N/A   Scattered Clouds
10:53 AM 26.1 °F 16.8 °F 23.0 °F 88% 29.78 in 10.0 mi East 9.2 mph - N/A   Partly Cloudy
11:53 AM 28.0 °F - 23.0 °F 81% 29.75 in 10.0 mi Calm Calm - N/A   Overcast
12:53 PM 32.0 °F - 19.0 °F 59% 29.71 in 10.0 mi North - - N/A   Scattered Clouds
1:53 PM 33.1 °F 23.4 °F 12.9 °F 43% 29.74 in 10.0 mi West 13.8 mph 20.7 mph N/A   Mostly Cloudy
2:53 PM 33.1 °F 21.5 °F 18.0 °F 54% 29.73 in 10.0 mi SW 19.6 mph 28.8 mph 0.00 in   Clear
3:30 PM 32.0 °F 18.9 °F 15.1 °F 50% 29.77 in 10.0 mi West 24.2 mph 31.1 mph N/A   Overcast
3:53 PM 30.9 °F 17.8 °F 15.1 °F 52% 29.78 in 10.0 mi West 23.0 mph - N/A   Partly Cloudy
4:53 PM 28.0 °F 21.7 °F 16.0 °F 61% 29.84 in 10.0 mi West 5.8 mph - N/A   Clear
5:53 PM 24.1 °F 17.0 °F 14.0 °F 65% 29.90 in 10.0 mi WSW 5.8 mph - N/A   Clear
6:53 PM 21.9 °F 10.4 °F 16.0 °F 78% 29.95 in 10.0 mi SW 11.5 mph - N/A   Clear
7:53 PM 21.9 °F 9.8 °F 15.1 °F 75% 29.98 in 10.0 mi South 12.7 mph - N/A   Scattered Clouds
8:53 PM 21.0 °F 7.6 °F 18.0 °F 88% 29.99 in 10.0 mi South 15.0 mph - N/A   Clear
9:53 PM 21.9 °F 9.8 °F 18.0 °F 85% 30.00 in 10.0 mi South 12.7 mph - N/A   Mostly Cloudy
10:53 PM 19.9 °F 10.1 °F 17.1 °F 89% 30.02 in 10.0 mi SW 8.1 mph - N/A   Clear
11:19 PM 18.0 °F 7.7 °F 16.0 °F 92% 29.98 in 10.0 mi SW 8.1 mph - N/A   Scattered Clouds
11:29 PM 19.0 °F 8.2 °F 16.0 °F 88% 29.99 in 9.0 mi South 9.2 mph - N/A   Mostly Cloudy
11:36 PM 19.0 °F 5.0 °F 17.1 °F 92% 29.99 in 4.0 mi SSE 15.0 mph 19.6 mph N/A   Mostly Cloudy
11:45 PM 18.0 °F 1.7 °F 17.1 °F 96% 29.99 in 2.0 mi SSE 19.6 mph - N/A   Overcast
11:53 PM 18.0 °F 1.7 °F 16.0 °F 92% 30.05 in 1.2 mi SSE 19.6 mph - N/A   Overcast